Breckenridge, TX

8:59 PM CST on February 24, 2017 (GMT -0600)
Stephens County

Weather History for KBKD - April, 2011

Change the Weather History Date:

Thursday, April 14, 2011

  Actual Average (KMWL) Record (KMWL)
Temperature  
Mean Temperature 80 °F -  
Max Temperature 95 °F 74 °F 93 °F (2011)
Min Temperature 64 °F 51 °F 34 °F (2004)
Cooling Degree Days 14    
Growing Degree Days 30 (Base 50)    
Moisture  
Dew Point 42 °F    
Average Humidity 38    
Maximum Humidity 88    
Minimum Humidity 6    
Precipitation  
Precipitation 0.00 in - - ()
Sea Level Pressure  
Sea Level Pressure 29.67 in    
Wind  
Wind Speed 15 mph (SW)    
Max Wind Speed 23 mph    
Max Gust Speed 33 mph    
Visibility 10 miles    
Events      
Averages and records for this station are not official NWS values.
T = Trace of Precipitation, MM = Missing Value Source: NWS Daily Summary

Daily Weather History Graph

Daily Weather History Graph

Search for Another Location

Airport or City:

Trip Planner

Search our weather history database for the weather conditions in past years. The results will help you decide how hot, cold, wet, or windy it might be!

Date:

Astronomy

Apr. 14, 2011 Rise Set
Actual Time 7:07 AM CDT 8:04 PM CDT
Civil Twilight 6:42 AM CDT 8:30 PM CDT
Nautical Twilight 6:12 AM CDT 8:59 PM CDT
Astronomical Twilight 5:41 AM CDT 9:30 PM CDT
Moon 4:32 PM CDT (4/14) 4:30 AM CDT (4/14)
Length of Visible Light 13h 47m
Length of Day
12h 57m
Waxing Gibbous, 83% of the Moon is Illuminated
Apr 14
Waxing Gibbous
Apr 17
Full
Apr 24
Last Quarter
May 3
New
May 10
First Quarter

Hourly Weather History & Observations

Time (CDT) Temp. Heat Index Dew Point Humidity Pressure Visibility Wind Dir Wind Speed Gust Speed Precip Events Conditions
12:15 AM 71.6 °F - 46.4 °F 41% 29.79 in 10.0 mi SSE 15.0 mph 23.0 mph N/A   Clear
12:55 AM 71.6 °F - 46.4 °F 41% 29.79 in 10.0 mi South 13.8 mph 20.7 mph N/A   Clear
1:15 AM 69.8 °F - 48.2 °F 46% 29.78 in 10.0 mi South 12.7 mph 19.6 mph N/A   Clear
1:35 AM 69.8 °F - 48.2 °F 46% 29.77 in 10.0 mi South 13.8 mph 19.6 mph N/A   Clear
1:55 AM 69.8 °F - 50.0 °F 49% 29.78 in 10.0 mi South 12.7 mph 19.6 mph N/A   Clear
2:15 AM 69.8 °F - 50.0 °F 49% 29.77 in 10.0 mi South 15.0 mph 20.7 mph N/A   Clear
2:35 AM 69.8 °F - 51.8 °F 53% 29.77 in 10.0 mi South 13.8 mph 20.7 mph N/A   Clear
2:55 AM 68.0 °F - 51.8 °F 56% 29.76 in 10.0 mi South 12.7 mph 19.6 mph N/A   Clear
3:15 AM 68.0 °F - 53.6 °F 60% 29.76 in 10.0 mi South 12.7 mph 17.3 mph N/A   Clear
3:35 AM 69.8 °F - 55.4 °F 60% 29.75 in 10.0 mi South 15.0 mph 23.0 mph N/A   Clear
3:55 AM 69.8 °F - 55.4 °F 60% 29.75 in 10.0 mi SSW 17.3 mph 23.0 mph N/A   Clear
4:15 AM 68.0 °F - 57.2 °F 68% 29.74 in 10.0 mi South 15.0 mph 21.9 mph N/A   Clear
4:35 AM 68.0 °F - 57.2 °F 68% 29.75 in 10.0 mi South 15.0 mph 25.3 mph N/A   Clear
4:55 AM 68.0 °F - 59.0 °F 73% 29.75 in 10.0 mi South 15.0 mph 21.9 mph N/A   Clear
5:15 AM 68.0 °F - 59.0 °F 73% 29.75 in 10.0 mi South 13.8 mph 18.4 mph N/A   Clear
5:35 AM 68.0 °F - 59.0 °F 73% 29.74 in 10.0 mi South 15.0 mph 20.7 mph N/A   Clear
6:15 AM 66.2 °F - 59.0 °F 78% 29.74 in 10.0 mi South 16.1 mph 21.9 mph N/A   Clear
6:35 AM 66.2 °F - 59.0 °F 78% 29.73 in 10.0 mi South 15.0 mph - N/A   Clear
6:55 AM 64.4 °F - 59.0 °F 83% 29.74 in 10.0 mi South 13.8 mph 21.9 mph N/A   Clear
7:15 AM 64.4 °F - 60.8 °F 88% 29.74 in 10.0 mi South 13.8 mph 19.6 mph N/A   Clear
7:35 AM 64.4 °F - 60.8 °F 88% 29.74 in 10.0 mi South 15.0 mph 18.4 mph N/A   Clear
7:55 AM 66.2 °F - 60.8 °F 83% 29.74 in 10.0 mi SSW 12.7 mph 19.6 mph N/A   Clear
8:15 AM 68.0 °F - 60.8 °F 78% 29.74 in 10.0 mi SSW 17.3 mph - N/A   Clear
8:35 AM 69.8 °F - 60.8 °F 73% 29.74 in 10.0 mi SSW 17.3 mph 21.9 mph N/A   Clear
8:55 AM 71.6 °F - 62.6 °F 73% 29.75 in 10.0 mi SSW 17.3 mph 23.0 mph N/A   Clear
9:15 AM 73.4 °F - 62.6 °F 69% 29.75 in 10.0 mi SW 17.3 mph 26.5 mph N/A   Clear
9:35 AM 75.2 °F - 60.8 °F 61% 29.74 in 10.0 mi SW 18.4 mph 26.5 mph N/A   Clear
9:55 AM 77.0 °F - 60.8 °F 57% 29.73 in 10.0 mi SW 23.0 mph 28.8 mph N/A   Clear
10:15 AM 77.0 °F - 60.8 °F 57% 29.73 in 10.0 mi SW 19.6 mph 28.8 mph N/A   Clear
10:35 AM 78.8 °F - 59.0 °F 51% 29.73 in 10.0 mi WSW 19.6 mph 28.8 mph N/A   Clear
10:55 AM 80.6 °F 80.8 °F 57.2 °F 45% 29.73 in 10.0 mi WSW 18.4 mph 25.3 mph N/A   Clear
11:35 AM 84.2 °F 82.8 °F 53.6 °F 35% 29.72 in 10.0 mi WSW 17.3 mph 21.9 mph N/A   Clear
11:55 AM 86.0 °F - 50.0 °F 29% 29.71 in 10.0 mi WSW 12.7 mph 21.9 mph N/A   Clear
12:15 PM 87.8 °F - 44.6 °F 22% 29.70 in 10.0 mi West 15.0 mph 21.9 mph N/A   Clear
12:35 PM 87.8 °F - 41.0 °F 19% 29.69 in 10.0 mi WSW 16.1 mph 25.3 mph N/A   Clear
12:55 PM 89.6 °F - 42.8 °F 20% 29.68 in 10.0 mi WSW 13.8 mph 19.6 mph N/A   Clear
1:15 PM 89.6 °F - 41.0 °F 18% 29.66 in 10.0 mi WSW 13.8 mph 18.4 mph N/A   Clear
1:35 PM 91.4 °F - 39.2 °F 16% 29.65 in 10.0 mi SW 20.7 mph 28.8 mph N/A   Clear
1:55 PM 91.4 °F - 41.0 °F 17% 29.63 in 10.0 mi SSW 18.4 mph 27.6 mph N/A   Clear
2:15 PM 91.4 °F - 41.0 °F 17% 29.62 in 10.0 mi SW 12.7 mph 23.0 mph N/A   Clear
2:35 PM 93.2 °F - 33.8 °F 12% 29.61 in 10.0 mi West 13.8 mph 23.0 mph N/A   Clear
2:55 PM 93.2 °F - 32.0 °F 11% 29.59 in 10.0 mi SW 18.4 mph 27.6 mph N/A   Clear
3:15 PM 93.2 °F - 28.4 °F 10% 29.58 in 10.0 mi SW 21.9 mph 33.4 mph N/A   Clear
3:35 PM 95.0 °F - 24.8 °F 8% 29.57 in 10.0 mi West 21.9 mph 33.4 mph N/A   Scattered Clouds
3:55 PM 95.0 °F - 21.2 °F 7% 29.56 in 10.0 mi WSW 23.0 mph 29.9 mph N/A   Clear
4:15 PM 95.0 °F - 19.4 °F 6% 29.55 in 10.0 mi WSW 23.0 mph 33.4 mph N/A   Clear
4:35 PM 95.0 °F - 17.6 °F 6% 29.54 in 10.0 mi WSW 19.6 mph 29.9 mph N/A   Clear
4:55 PM 95.0 °F - 19.4 °F 6% 29.53 in 10.0 mi WSW 21.9 mph 29.9 mph N/A   Clear
5:15 PM 95.0 °F - 19.4 °F 6% 29.52 in 10.0 mi WSW 15.0 mph 27.6 mph N/A   Clear
5:35 PM 95.0 °F - 19.4 °F 6% 29.52 in 10.0 mi West 15.0 mph 29.9 mph N/A   Clear
5:55 PM 93.2 °F - 19.4 °F 7% 29.52 in 10.0 mi West 15.0 mph 21.9 mph N/A   Clear
6:15 PM 93.2 °F - 19.4 °F 7% 29.52 in 10.0 mi West 18.4 mph 27.6 mph N/A   Clear
6:55 PM 91.4 °F - 17.6 °F 7% 29.52 in 10.0 mi West 23.0 mph 31.1 mph N/A   Clear
7:15 PM 89.6 °F - 17.6 °F 7% 29.52 in 10.0 mi West 16.1 mph 20.7 mph N/A   Clear
7:35 PM 86.0 °F - 17.6 °F 8% 29.53 in 10.0 mi North - - N/A   Clear
7:55 PM 84.2 °F - 17.6 °F 8% 29.55 in 10.0 mi WNW 9.2 mph - N/A   Clear
8:15 PM 82.4 °F - 19.4 °F 10% 29.56 in 10.0 mi NW 13.8 mph - N/A   Clear
8:35 PM 82.4 °F - 17.6 °F 9% 29.59 in 7.0 mi NNW 18.4 mph 32.2 mph N/A   Mostly Cloudy
8:55 PM 80.6 °F - 17.6 °F 10% 29.60 in 7.0 mi NNW 15.0 mph 21.9 mph N/A   Overcast
9:15 PM 78.8 °F - 17.6 °F 10% 29.62 in 7.0 mi NW 11.5 mph - N/A   Overcast
9:35 PM 77.0 °F - 17.6 °F 11% 29.63 in 7.0 mi NW 6.9 mph - N/A   Overcast
9:55 PM 77.0 °F - 17.6 °F 11% 29.65 in 7.0 mi NW 8.1 mph - N/A   Overcast
10:55 PM 69.8 °F - 17.6 °F 14% 29.66 in 7.0 mi West 6.9 mph - N/A   Scattered Clouds
11:15 PM 68.0 °F - 17.6 °F 15% 29.68 in 7.0 mi NW 10.4 mph 17.3 mph N/A   Clear
11:35 PM 68.0 °F - 17.6 °F 15% 29.69 in 10.0 mi NNW 8.1 mph - N/A   Clear
11:55 PM 69.8 °F - 19.4 °F 15% 29.70 in 10.0 mi North 10.4 mph - N/A   Clear